Weather History for Hawarden, United Kingdom

Change the Weather History Date:

Saturday, October 26, 2013

  Actual Average (EGGP) Record (EGGP)
Temperature  
Mean Temperature 56 °F -  
Max Temperature 61 °F 49 °F 62 °F (2005)
Min Temperature 50 °F 41 °F 32 °F (1997)
Degree Days  
Heating Degree Days 10    
Growing Degree Days 6 (Base 50)    
Moisture  
Dew Point 51 °F    
Average Humidity 79    
Maximum Humidity 100    
Minimum Humidity 59    
Precipitation  
Precipitation 0.08 in - - ()
Sea Level Pressure  
Sea Level Pressure 29.50 in    
Wind  
Wind Speed 9 mph ()    
Max Wind Speed 21 mph    
Max Gust Speed 34 mph    
Visibility 7.8 miles    
Events Rain    
Averages and records for this station are not official NWS values.
T = Trace of Precipitation, MM = Missing Value Source: Averaged Metar Reports

Daily Weather History Graph

Daily Weather History Graph

Search for Another Location

Airport:

Trip Planner

Search our weather history database for the weather conditions in past years. The results will help you decide how hot, cold, wet, or windy it might be!

Date:

Astronomy

Oct. 26, 2013 Rise Set
Actual Time 7:58 AM BST 5:51 PM BST
Civil Twilight 7:22 AM BST 6:27 PM BST
Nautical Twilight 6:42 AM BST 7:08 PM BST
Astronomical Twilight 6:02 AM BST 7:48 PM BST
Moon 11:48 PM BST (10/26) 2:15 PM BST (10/26)
Length of Visible Light 11h 05m
Length of Day
9h 53m
Waning Gibbous, 55% of the Moon is Illuminated
Oct 26
Waning Gibbous
Oct 27
Last Quarter
Nov 3
New
Nov 10
First Quarter
Nov 17
Full

Hourly Weather History & Observations

Time (BST) Temp. Dew Point Humidity Pressure Visibility Wind Dir Wind Speed Gust Speed Precip Events Conditions
4:00 AM 53 °F 51 °F 90% 29.54 in 14 mi South 5.8 mph - -   Mostly Cloudy
7:00 AM 55 °F 54 °F 95% 29.53 in 6 mi South 4.6 mph - - Rain Rain
8:20 AM 55.4 °F 55.4 °F 100% 29.53 in 6.2 mi South 5.8 mph - N/A   Mostly Cloudy
8:50 AM 55.4 °F 55.4 °F 100% 29.53 in 6.2 mi South 6.9 mph - N/A   Mostly Cloudy
9:20 AM 55.4 °F 55.4 °F 100% 29.53 in 6.2 mi South 5.8 mph - N/A   Mostly Cloudy
9:50 AM 55.4 °F 53.6 °F 94% 29.53 in 6.2 mi SW 5.8 mph - N/A   Mostly Cloudy
10:00 AM 56 °F 54 °F 90% 29.55 in 19 mi SW 6.9 mph - -   Mostly Cloudy
10:20 AM 59.0 °F 53.6 °F 82% 29.53 in 6.2 mi WSW 12.7 mph - N/A   Mostly Cloudy
10:50 AM 59.0 °F 51.8 °F 77% 29.53 in 6.2 mi SW 12.7 mph - N/A   Mostly Cloudy
11:20 AM 59.0 °F 50.0 °F 72% 29.53 in 6.2 mi SW 8.1 mph - N/A   Mostly Cloudy
11:50 AM 59.0 °F 50.0 °F 72% 29.53 in 6.2 mi SW 10.4 mph - N/A   Mostly Cloudy
12:20 PM 59.0 °F 51.8 °F 77% 29.53 in 6.2 mi WSW 11.5 mph - N/A   Scattered Clouds
12:50 PM 62.6 °F 51.8 °F 68% 29.50 in 6.2 mi SSW 12.7 mph 24.2 mph N/A   Scattered Clouds
1:00 PM 59 °F 48 °F 59% 29.52 in 28 mi SSW 15.0 mph - -   Mostly Cloudy
1:20 PM 60.8 °F 50.0 °F 68% 29.50 in 6.2 mi SW 18.4 mph - N/A   Scattered Clouds
1:50 PM 59.0 °F 48.2 °F 67% 29.50 in 6.2 mi SSW 20.7 mph - N/A   Mostly Cloudy
2:20 PM 60.8 °F 48.2 °F 63% 29.47 in 6.2 mi SSW 13.8 mph - N/A   Mostly Cloudy
2:50 PM 60.8 °F 48.2 °F 63% 29.47 in 6.2 mi SSW 20.7 mph 34.5 mph N/A   Mostly Cloudy
3:20 PM 59.0 °F 48.2 °F 67% 29.47 in 6.2 mi SSW 13.8 mph - N/A   Scattered Clouds
3:50 PM 57.2 °F 48.2 °F 72% 29.44 in 6.2 mi South 17.3 mph - N/A   Scattered Clouds
4:00 PM 58 °F 48 °F 61% 29.46 in 25 mi South 16.1 mph - -   Scattered Clouds
7:00 PM 55 °F 52 °F 85% 29.36 in 9 mi SSE 16.1 mph - - Rain Light Rain
10:00 PM 51 °F 48 °F 85% 29.37 in 16 mi SSW 11.5 mph - -   Mostly Cloudy